Flag for Turkey Weather past 2 weeks in Bodrum, Turkey

Now
75 °F

Passing clouds.


Feels Like: 77 °F
Forecast: 73 / 80 °F
Wind: 3 mph from Northeast

Location: Bodrum Milas Airport

Current Time: Sep 23, 2014 at 9:51:17 AM

Latest Report: Sep 23, 2014 at 9:20 AM


Visibility: N/A

Pressure: 29.83 "Hg

Humidity: 65%

Dew point: 63 °F

Location of BodrumLocation

Historic Weather in Bodrum — Graph

°F

Bodrum temperature yesterday

Maximum temperature yesterday: 86 °F (at 12:50 PM)
Minimum temperature yesterday: 59 °F (at 6:50 AM)
Average temperature yesterday: 73 °F

Past Weeks' High & Low Weather Summary

 TemperatureHumidityPressure
High91 °F (Sep 13, 3:20 PM)94% (Sep 10, 2:50 AM)30.07 "Hg (Sep 10, 2:50 AM)
Low55 °F (Sep 21, 6:20 AM)19% (Sep 20, 3:20 PM)29.74 "Hg (Sep 16, 4:20 PM)
Average75 °F62%29.87 "Hg
* Reported Sep 8 8:20 AM — Sep 23 8:50 AM, Bodrum, Weather by CustomWeather, © 2014

Note: Actual official high and low records may vary slightly from our data, if they occured in-between our weather recording intervals... More about our weather records

Advertising

Bodrum weather history for previous 24 hours

 ConditionsComfort  
Time TempWeatherWind HumidityBarometerVisibility
8:50 AM
Sep 23
72 °FSunny.2 mph69%29.86 "Hg10 mi
8:20 AM68 °FSunny.3 mph73%29.86 "Hg10 mi
7:50 AM64 °FClear.2 mph83%29.83 "Hg10 mi
7:20 AM63 °FClear.3 mph88%29.83 "Hg10 mi
6:50 AM63 °FClear.2 mph83%29.83 "Hg10 mi
6:20 AM63 °FPassing clouds.3 mph83%29.83 "HgN/A
5:50 AM63 °FClear.2 mph83%29.83 "Hg10 mi
5:20 AM64 °FPassing clouds.3 mph83%29.83 "HgN/A
4:50 AM64 °FClear.1 mph83%29.83 "Hg10 mi
4:20 AM64 °FClear.2 mph83%29.83 "Hg10 mi
3:50 AM64 °FClear.2 mph83%29.83 "Hg10 mi
3:20 AM68 °FClear.1 mph78%29.83 "Hg10 mi
2:50 AM68 °FClear.3 mph78%29.83 "Hg10 mi
2:20 AM66 °FClear.2 mph78%29.83 "Hg10 mi
1:50 AM66 °FClear.3 mph78%29.83 "Hg10 mi
1:20 AM66 °FClear.2 mph78%29.86 "Hg10 mi
12:50 AM68 °FPassing clouds.3 mph78%29.86 "HgN/A
12:20 AM68 °FClear.2 mph78%29.86 "Hg10 mi
11:50 PM
Sep 22
68 °FClear.2 mph78%29.86 "Hg10 mi
11:20 PM72 °FClear.2 mph73%29.86 "Hg10 mi
10:50 PM68 °FClear.2 mph78%29.86 "Hg10 mi
10:20 PM70 °FClear.No wind78%29.86 "Hg10 mi
9:50 PM73 °FClear.1 mph69%29.86 "Hg10 mi
9:20 PM75 °FClear.6 mph69%29.86 "Hg10 mi
8:50 PM73 °FPassing clouds.3 mph74%29.86 "HgN/A
8:20 PM77 °FPassing clouds.5 mph69%29.83 "HgN/A
7:50 PM79 °FPassing clouds.6 mph58%29.83 "HgN/A
7:20 PM79 °FSunny.10 mph58%29.83 "Hg10 mi
6:50 PM81 °FSunny.8 mph54%29.83 "Hg10 mi
6:20 PM81 °FPassing clouds.14 mph54%29.83 "HgN/A
5:50 PM82 °FPassing clouds.17 mph51%29.83 "HgN/A
5:20 PM82 °FPassing clouds.21 mph51%29.80 "HgN/A
4:50 PM84 °FPassing clouds.21 mph51%29.80 "HgN/A
4:20 PM84 °FPassing clouds.21 mph43%29.80 "HgN/A
3:50 PM84 °FPassing clouds.20 mph43%29.80 "HgN/A
3:20 PM86 °FPassing clouds.15 mph40%29.80 "HgN/A
2:50 PM86 °FPassing clouds.14 mph40%29.83 "HgN/A
2:20 PM86 °FPassing clouds.14 mph40%29.83 "HgN/A
1:50 PM86 °FPassing clouds.14 mph43%29.86 "HgN/A
1:20 PM86 °FPassing clouds.9 mph43%29.86 "HgN/A
12:50 PM86 °FPassing clouds.9 mph38%29.86 "HgN/A
12:20 PM84 °FPassing clouds.10 mph43%29.89 "HgN/A
11:50 AM84 °FPassing clouds.8 mph40%29.89 "HgN/A
11:20 AM82 °FPassing clouds.7 mph45%29.89 "HgN/A
10:50 AM82 °FSunny.5 mph42%29.89 "Hg10 mi
10:20 AM79 °FPassing clouds.5 mph48%29.89 "HgN/A
9:50 AM75 °FSunny.2 mph57%29.89 "Hg10 mi
9:20 AM73 °FSunny.1 mph61%29.89 "Hg10 mi
Weather by CustomWeather, © 2014

See weather overviewHow to use our weather pages